星链-1585 (STARLINK-1585 )

导读 | 豆包AI

STARLINK-1585是美国SpaceX星链互联网星座的一颗卫星,于2020年8月18日发射,是星链项目早期部署批次中的成员,承担低轨全球卫星互联网组网任务。它运行在近地轨道,通过星间链路与其他星链卫星协同,为全球用户提供宽带互联网接入服务。

基本信息
目录编号:
46117
目录名称:
STARLINK-1585
国际标识:
2020-057A
轨道中心:
EARTH
卫星名称:
星链-1585
卫星全名:
星链-1585 (STARLINK-1585 )
卫星状态:
在轨 (已飞行2055 天)
发射日期:
2020-08-18 UTC
国别 :
美国 (US)
星等 :
--
轨道信息
数据来源 国际轨道数据
星历时间: 2026-04-03T21:09:19+0800
12小时前
查看轨道信息
半长轴: 6631.573km
偏心率: 0.0006231
轨道倾角: 53.030°
近地点辐角 34.231°
升交点赤经 119.897°
平近点角 325.912°
近地点: 249.303km
远地点: 257.569km
周期: 89.575分钟
每日圈数: 16.076001
详细信息
固有亮度:
5
最大亮度:
2.5
卫星平台:
Starlink V1.0
覆盖范围:
全球
运营商:
太空探索技术公司
运营商所在国:
美国
制造商(研发单位):
太空探索技术公司
制造商所在国:
美国
使用方式:
暂无
卫星简介
星链(Starlink)计划是由太空探索技术公司(SpaceX)提出的一个巨型低轨卫星互联网星座项目,计划在2019年至2024年间在太空搭建由约1.2万颗卫星组成的“星链”网络,其中1584颗将部署在地球上空550千米处的近地轨道,并从2020年开始工作。该卫星仍在工作。
2D轨道图
3D轨道图
轨道高度分析图
轨道倾角分析图
轨道综合分析图
查看轨道综合分析图